Regional Weather Roundup
Issued by NWS Newport/Morehead, NC

Current Version | Previous Version | Graphics & Text | Print | Product List | Glossary On
Versions: 1 2 3 4 5 6 7 8 9 10 11 12 13 14 15 16 17 18 19 20 21 22 23 24 25 26 27 28 29 30 31 32 33 34 35 36 37 38 39 40 41 42 43 44 45 46 47 48 49 50
000 ASUS42 KMHX 010525 RWRMHX WEATHER ROUNDUP FOR EASTERN NORTH CAROLINA NATIONAL WEATHER SERVICE NEWPORT/MOREHEAD CITY NC 100 AM EDT SUN MAY 01 2016 NOTE: "FAIR" INDICATES FEW OR NO CLOUDS BELOW 12,000 FEET WITH NO SIGNIFICANT WEATHER AND/OR OBSTRUCTIONS TO VISIBILITY NCZ015>017-031-032-045>047-102-103-010600- NORTH COAST CITY SKY/WX TMP DP RH WIND PRES REMARKS EDENTON CLOUDY 57 56 97 NE3 30.18F ELIZABETH CITY CLOUDY 56 51 84 E7 30.18F KITTY HAWK PTCLDY 55 53 95 E7 30.16F MANTEO NOT AVBL $$ NCZ045>047-081-094-103-104-010600- CENTRAL COAST CITY SKY/WX TMP DP RH WIND PRES REMARKS FRISCO CLOUDY 59 56 89 NE7 30.16F SWANQUARTER NOT AVBL $$ NCZ095-097-098-100-101-010600- SOUTHERN COAST CITY SKY/WX TMP DP RH WIND PRES REMARKS BEAUFORT CLOUDY 62 59 90 E8 30.15F CEDAR ISLAND NOT AVBL JACKSONVILLE CLOUDY 61 56 83 E12 30.13F PINEY ISLAND NOT AVBL WILMINGTON CLOUDY 65 61 87 E13G18 30.13S $$ NCZ011>013-027>030-043-044-078>080-089-090>093-098-010600- COASTAL PLAIN CITY SKY/WX TMP DP RH WIND PRES REMARKS AHOSKIE CLOUDY 55 51 87 E3 30.17F CLINTON CLOUDY 62 59 88 E5 30.14R ELIZABETHTOWN MOCLDY 61 59 93 CALM 30.13S GOLDSBORO CLOUDY 61 61 100 E9 30.12S GREENVILLE CLOUDY 57 54 88 E6 30.16F HAVELOCK CLOUDY 61 57 87 E8 30.16F KENANSVILLE CLOUDY 61 56 85 CALM 30.15R KINSTON CLOUDY 60 55 85 E7 30.15F NEW BERN CLOUDY 61 57 87 E8 30.16F RICHLANDS CLOUDY 60 57 89 E8 30.14F ROCKY MOUNT CLOUDY 57 52 83 E5 30.15F WASHINGTON CLOUDY 56 53 91 E6 30.16F WHITEVILLE CLOUDY 63 59 88 E6 30.11S $$ AMZ130-135-150-152-154-156-158-170-250-252-270-ANZ085-086-088-633-658-670-010600- MARINE OBSERVATIONS STATION/POSITION TIME TEMP WIND PRES WAVE SWELL AIR SEA DIR/SP/G HT/PER HT/PER (UTC) (F) (DEG/KT/KT) (MB) (FT/S) (FT/S) CHESAPEAKE LIGHT 0500 54 80/ 13/ 14 1023.1 64 E VA BEACH 0450 55 53 70/ 8/ 10 1021.8 6/10 5/10 DUCK 0500 55 67 70/ 15/ 17 1021.0 2 E DUCK 0511 59 N/A 5/11 2/11 OREGON INLET 0500 56 62 50/ 9/ 13 1021.1 13E OREGON INLT 0500 55 N/A 6/11 5/11 HATTERAS CG 0500 61 68 50/ 9/ 13 1020.5 DIAMOND BUOY 0450 66 74 40/ 14/ 17 1020.5 5/ 9 5/ 9 CAPE LOOKOUT 0500 63 50/ 12/ 13 1020.3 BEAUFORT LAB 0500 62 67 70/ 6/ 7 1019.9 30 SE NEW RVR IN 0425 68 N/A 4/ 9 2/11 27 SE WRIGHTSVLE 0508 70 72 90/ 14/ 17 1018.9 5 SE WRIGHTSVLE 0508 66 68 90/ 16/ 19 1020.0 225 S CAPE HAT 0450 71 80/ 14/ 16 1020.5 5/10 3/10 41 SE CHARLESTON 0450 74 73 110/ 19/ 23 1017.9 4/ 6 2/ 8 $$

USA.gov is the U.S. government's official web portal to all federal, state and local government web resources and services.